Location: Clover
(42.5131°N, 114.6874°W)
Time: 14:06:23
(UTC+00:00)

Transit 2A Rocket - Pass Details

Date: 13 November 2024
Orbit: 585 x 904 km, 66.7° (Epoch: 02 December)

Event Time Altitude Azimuth Distance (km) Brightness Sun altitude
Rises 01:47:17 0° 327° (NNW) 3,251 8.6 -16.5°
Reaches altitude 10° 01:49:48 10° 326° (NW) 2,268 7.8 -16.9°
Maximum altitude 01:54:56 73° 242° (WSW) 728 5.0 -17.9°
Drops below altitude 10° 01:59:33 10° 158° (SSE) 2,052 7.1 -18.7°
Sets 02:01:44 0° 157° (SSE) 2,918 7.9 -19.1°
